Regional Weather Roundup
Issued by NWS

Home | Current Version | Previous Version | Text Only | Print | Product List | Glossary On
Versions: 1 2 3 4 5 6 7 8 9 10 11 12 13 14 15 16 17 18 19 20 21 22 23 24 25 26 27 28 29 30 31 32 33 34 35 36 37 38 39 40 41 42 43 44 45 46 47 48 49 50
000
ASUS44 KBMX 180210
RWRAL

ALABAMA REGIONAL WEATHER ROUNDUP
NATIONAL WEATHER SERVICE BIRMINGHAM AL
800 PM CST WED DEC 17 2014

NOTE: "FAIR" INDICATES FEW OR NO CLOUDS BELOW 12,000 FEET
WITH NO SIGNIFICANT WEATHER AND/OR OBSTRUCTIONS TO VISIBILITY.

THE REMARK "TC" DENOTES TEMPERATURE IN DEGREES CELSIUS.

ALZ001>011-014-016>018-020-180300-
NORTH ALABAMA

CITY           SKY/WX    TMP DP  RH WIND       PRES   REMARKS
MUSCLE SHOALS  CLOUDY    42  34  73 N3        30.26S
HUNTSVILLE     CLOUDY    40  33  76 N6        30.25R
DECATUR        CLOUDY    38  33  82 N5        30.25S WCI  34
HALEYVILLE     FAIR      37  35  92 CALM      30.24F
GADSDEN        MOCLDY    39  32  75 CALM      30.22F
$$

ALZ012-013-022-023-030>036-040>044-180300-
WEST CENTRAL ALABAMA

CITY           SKY/WX    TMP DP  RH WIND       PRES   REMARKS
TUSCALOOSA     MOCLDY    41  36  82 CALM      30.23F
$$

ALZ015-024>027-033>036-040>044-180300-
CENTRAL ALABAMA

CITY           SKY/WX    TMP DP  RH WIND       PRES   REMARKS
BIRMINGHAM     MOCLDY    37  34  89 CALM      30.24F
MONTGOMERY     PTCLDY    45  37  73 N3        30.22S
SHELBY CO ARPT MOCLDY    38  35  89 CALM      30.21F
MAXWELL AFB    MOCLDY    44  38  80 N6        30.22S
GREENVILLE     FAIR      46  37  71 N6        30.20R
$$

ALZ019-021-028-029-037-038-045>048-180300-
EAST CENTRAL ALABAMA

CITY           SKY/WX    TMP DP  RH WIND       PRES   REMARKS
ANNISTON       PTCLDY    34  32  92 CALM      30.22S
ALEXANDER CITY MOCLDY    42  36  77 N3        30.20S
AUBURN         MOCLDY    43  36  75 N9        30.21F
$$

ALZ051>064-180300-
SOUTHWEST ALABAMA

CITY           SKY/WX    TMP DP  RH WIND       PRES   REMARKS
MOBILE         PTCLDY    42  41  96 CALM      30.20F
BROOKLEY FIELD CLEAR     44  40  85 CALM      30.22S
EVERGREEN      PTCLDY    42  39  89 CALM      30.20S
$$

ALZ049-050-065>069-180300-
SOUTHEAST ALABAMA

CITY           SKY/WX    TMP DP  RH WIND       PRES   REMARKS
DOTHAN         CLEAR     47  41  80 NW5       30.21S
OZARK          CLEAR     49  41  73 NW6       30.18F
TROY           PTCLDY    46  38  73 N8        30.20S
EUFAULA        FAIR      50  39  66 VRB6      30.18R
$$


USA.gov is the U.S. government's official web portal to all federal, state and local government web resources and services.